FW2530 Weather Reports


time (UTC)temp
C
wind
direction
speed
KPH
gust
KPH
rain 1hr
cm
rain 24hr
cm
rain mn
cm
humidity
%
barometer
mb
20260503194007 15 360 17.7 38.6 0.00 0.00 0.00 51 1008.6
20260503193506 15 360 14.5 40.2 0.00 0.00 0.00 50 1008.5
20260503193006 15 360 9.7 30.6 0.00 0.00 0.00 51 1008.5
20260503192507 15 360 11.3 30.6 0.00 0.00 0.00 51 1008.5
20260503192028 15 360 12.9 32.2 0.00 0.00 0.00 50 1008.6
20260503191527 15 360 11.3 37.0 0.00 0.00 0.00 50 1008.7
20260503191007 15 360 9.7 30.6 0.00 0.00 0.00 53 1008.8
20260503190506 15 360 11.3 27.4 0.00 0.00 0.00 53 1009.0
20260503190028 15 360 12.9 32.2 0.00 0.00 0.00 55 1009.0
20260503185506 15 360 14.5 43.5 0.00 0.00 0.00 33 1009.2
20260503185006 15 360 14.5 37.0 0.00 0.00 0.00 33 1009.3
20260503184506 14 360 16.1 32.2 0.00 0.00 0.00 56 1009.4
20260503184007 14 360 14.5 45.1 0.00 0.00 0.00 56 1009.4
20260503183506 15 360 12.9 40.2 0.00 0.00 0.00 56 1009.5
20260503183006 15 360 12.9 40.2 0.00 0.00 0.00 56 1009.5
20260503182507 15 360 11.3 25.7 0.00 0.00 0.00 56 1009.5
20260503182006 15 360 12.9 33.8 0.00 0.00 0.00 55 1009.4
20260503181507 15 360 11.3 43.5 0.00 0.00 0.00 53 1009.4
20260503181006 15 360 8.0 25.7 0.00 0.00 0.00 51 1009.4
20260503180506 15 360 9.7 24.1 0.00 0.00 0.00 52 1009.4
20260503180006 15 360 11.3 30.6 0.00 0.00 0.00 51 1009.5
20260503175506 16 360 11.3 27.4 0.00 0.00 0.00 52 1009.4
20260503175006 16 360 11.3 27.4 0.00 0.00 0.00 49 1009.5
20260503174506 16 354 12.9 30.6 0.00 0.00 0.00 28 1009.5
20260503174028 16 330 12.9 30.6 0.00 0.00 0.00 49 1009.4
20260503173528 17 292 9.7 20.9 0.00 0.00 0.00 48 1009.4
20260503173027 17 289 9.7 27.4 0.00 0.00 0.00 28 1009.4
20260503172506 17 283 12.9 24.1 0.00 0.00 0.00 30 1009.4
20260503172006 17 279 14.5 37.0 0.00 0.00 0.00 27 1009.6
20260503171506 17 290 9.7 24.1 0.00 0.00 0.00 51 1009.6
20260503171006 17 292 9.7 20.9 0.00 0.00 0.00 30 1009.7
20260503170506 17 284 9.7 32.2 0.00 0.00 0.00 49 1009.8
20260503151006 13 351 8.0 25.7 0.00 0.00 0.00 59 1011.1
20260503150507 13 350 6.4 24.1 0.00 0.00 0.00 59 1011.1
20260503131006 7 279 4.8 12.9 0.00 0.00 0.00 70 1012.2
20260503130527 7 302 3.2 11.3 0.00 0.00 0.00 72 1012.2
20260503110527 0 0 0.0 0.0 0.00 0.00 0.00 82 1012.7
20260503090506 -2 9 0.0 4.8 0.00 0.00 0.00 84 1012.8
20260503081506 -2 0 0.0 0.0 0.00 0.00 0.00 84 1012.8
20260503081006 -2 0 0.0 0.0 0.00 0.00 0.00 84 1012.9
20260503080506 -2 0 0.0 0.0 0.00 0.00 0.00 84 1012.9
20260503072527 -2 0 0.0 0.0 0.00 0.00 0.00 84 1012.8
20260503072028 -2 0 0.0 0.0 0.00 0.00 0.00 84 1012.8
20260503071527 -2 0 0.0 0.0 0.00 0.00 0.00 84 1012.7
20260503071027 -2 0 0.0 0.0 0.00 0.00 0.00 85 1012.7
20260503070506 -2 0 0.0 0.0 0.00 0.00 0.00 85 1012.7
20260503055006 -2 0 0.0 0.0 0.00 0.00 0.00 84 1013.5
20260503054506 -2 0 0.0 0.0 0.00 0.00 0.00 84 1013.5
20260503054006 -2 0 0.0 0.0 0.00 0.00 0.00 83 1013.6
20260503053506 -2 0 0.0 0.0 0.00 0.00 0.00 83 1013.6
20260503053006 -2 0 0.0 0.0 0.00 0.00 0.00 83 1013.7
20260503052506 -1 0 0.0 0.0 0.00 0.00 0.00 83 1013.8
20260503052006 -1 0 0.0 0.0 0.00 0.00 0.00 83 1013.8
20260503051506 -1 0 0.0 0.0 0.00 0.00 0.00 83 1013.9
20260503051006 -1 0 0.0 0.0 0.00 0.00 0.00 83 1013.9
20260503050506 -1 0 0.0 0.0 0.00 0.00 0.00 83 1013.9
20260503050006 -1 0 0.0 0.0 0.00 0.00 0.00 82 1014.0
20260503045506 -1 0 0.0 0.0 0.00 0.00 0.00 82 1013.9
20260503045006 -1 0 0.0 0.0 0.00 0.00 0.00 82 1014.0
20260503044506 -1 0 0.0 0.0 0.00 0.00 0.00 81 1014.1
20260503044027 -1 0 0.0 0.0 0.00 0.00 0.00 81 1014.1
20260503043506 -1 0 0.0 0.0 0.00 0.00 0.00 81 1014.1
20260503043027 -1 0 0.0 0.0 0.00 0.00 0.00 81 1014.1
20260503042506 -1 0 0.0 0.0 0.00 0.00 0.00 80 1014.2
20260503042006 -1 0 0.0 0.0 0.00 0.00 0.00 80 1014.2
20260503041506 -1 0 0.0 0.0 0.00 0.00 0.00 80 1014.2
20260503041027 -1 0 0.0 0.0 0.00 0.00 0.00 79 1014.3
20260503040506 -1 0 0.0 0.0 0.00 0.00 0.00 79 1014.2
20260503040007 -1 0 0.0 0.0 0.00 0.00 0.00 79 1014.4
20260503035506 -1 0 0.0 0.0 0.00 0.00 0.00 79 1014.4
20260503035027 0 0 0.0 0.0 0.00 0.00 0.00 78 1014.4
20260503034506 0 0 0.0 0.0 0.00 0.00 0.00 78 1014.4
20260503034006 0 0 0.0 0.0 0.00 0.00 0.00 77 1014.4
20260503033506 0 0 0.0 0.0 0.00 0.00 0.00 77 1014.5
20260503033006 0 0 0.0 0.0 0.00 0.00 0.00 77 1014.5
20260503032506 0 0 0.0 0.0 0.00 0.00 0.00 75 1014.5
20260503032006 0 0 0.0 0.0 0.00 0.00 0.00 75 1014.5
20260503031506 0 0 0.0 0.0 0.00 0.00 0.00 75 1014.6
20260503031006 0 0 0.0 0.0 0.00 0.00 0.00 74 1014.6
20260503030506 0 0 0.0 0.0 0.00 0.00 0.00 74 1014.6
20260503030006 0 0 0.0 0.0 0.00 0.00 0.00 73 1014.7
20260503025506 0 0 0.0 0.0 0.00 0.00 0.00 72 1014.6
20260503025005 0 0 0.0 0.0 0.00 0.00 0.00 72 1014.7
20260503024506 0 0 0.0 0.0 0.00 0.00 0.00 71 1014.9
20260503024006 1 0 0.0 0.0 0.00 0.00 0.00 71 1014.8
20260503023506 1 0 0.0 0.0 0.00 0.00 0.00 70 1014.9
20260503023005 1 0 0.0 0.0 0.00 0.00 0.00 70 1015.0
20260503022505 1 0 0.0 0.0 0.00 0.00 0.00 70 1015.0
20260503022027 1 0 0.0 0.0 0.00 0.00 0.00 70 1015.0
20260503021506 1 0 0.0 0.0 0.00 0.00 0.00 70 1015.0
20260503021027 1 0 0.0 0.0 0.00 0.00 0.00 70 1015.0
20260503020506 2 0 0.0 0.0 0.00 0.00 0.00 70 1015.0
20260503020006 2 0 0.0 0.0 0.00 0.00 0.00 69 1015.0
20260503015506 2 0 0.0 0.0 0.00 0.00 0.00 69 1015.0
20260503015006 2 0 0.0 0.0 0.00 0.00 0.00 68 1015.0
20260503014506 2 0 0.0 0.0 0.00 0.00 0.00 68 1015.1
20260503014006 2 0 0.0 0.0 0.00 0.00 0.00 68 1015.0
20260503013506 3 0 0.0 0.0 0.00 0.00 0.00 67 1015.0
20260503013006 3 0 0.0 0.0 0.00 0.00 0.00 66 1014.9
20260503012505 3 0 0.0 0.0 0.00 0.00 0.00 64 1015.0
20260503012005 3 0 0.0 0.0 0.00 0.00 0.00 64 1014.9
20260503011506 3 0 0.0 0.0 0.00 0.00 0.00 63 1014.8
20260503011005 4 0 0.0 0.0 0.00 0.00 0.00 62 1014.9
20260503010506 4 0 0.0 0.0 0.00 0.00 0.00 62 1014.9
20260503010006 5 0 0.0 0.0 0.00 0.00 0.00 61 1014.9
20260503005505 5 0 0.0 0.0 0.00 0.00 0.00 60 1014.9
20260503005006 5 0 0.0 0.0 0.00 0.00 0.00 59 1014.9
20260503004527 5 0 0.0 0.0 0.00 0.00 0.00 59 1014.9
20260503004027 5 0 0.0 0.0 0.00 0.00 0.00 58 1014.9
20260503003527 5 9 0.0 1.6 0.00 0.00 0.00 58 1014.8
20260503003006 6 9 0.0 1.6 0.00 0.00 0.00 57 1014.8
20260503002505 6 9 0.0 0.0 0.00 0.00 0.00 57 1014.8
20260503002027 6 9 0.0 1.6 0.00 0.00 0.00 57 1014.8
20260503001505 6 9 1.6 4.8 0.00 0.00 0.00 56 1014.6
20260503001027 6 9 1.6 6.4 0.00 0.00 0.00 56 1014.6
20260503000505 6 9 1.6 6.4 0.00 0.00 0.00 56 1014.6
20260503000027 6 9 1.6 6.4 0.00 0.00 0.00 55 1014.6
20260502235506 6 9 1.6 6.4 0.00 0.00 0.00 55 1014.6
20260502235005 6 5 3.2 8.0 0.00 0.00 0.00 53 1014.5
20260502234506 6 345 4.8 8.0 0.00 0.00 0.00 53 1014.6
20260502234005 6 344 4.8 17.7 0.00 0.00 0.00 52 1014.7
20260502233506 7 351 4.8 12.9 0.00 0.00 0.00 51 1014.6
20260502233006 7 350 4.8 8.0 0.00 0.00 0.00 51 1014.7
20260502232505 7 2 4.8 17.7 0.00 0.00 0.00 50 1014.8
20260502232005 7 15 6.4 8.0 0.00 0.00 0.00 50 1014.8
20260502231526 7 5 8.0 17.7 0.00 0.00 0.00 49 1014.8
20260502231027 7 360 8.0 19.3 0.00 0.00 0.00 50 1014.8
20260502230505 7 1 6.4 17.7 0.00 0.00 0.00 49 1014.8
20260502230027 8 358 4.8 20.9 0.00 0.00 0.00 49 1014.8
20260502225526 8 356 6.4 14.5 0.00 0.00 0.00 48 1014.8
20260502225006 8 350 8.0 19.3 0.00 0.00 0.00 48 1014.8
20260502224505 8 360 6.4 24.1 0.00 0.00 0.00 48 1014.8
20260502224005 8 360 8.0 20.9 0.00 0.00 0.00 48 1014.8
20260502223505 8 355 8.0 24.1 0.00 0.00 0.00 47 1014.8
20260502223005 8 7 8.0 19.3 0.00 0.00 0.00 48 1014.8
20260502222505 8 4 8.0 19.3 0.00 0.00 0.00 47 1014.8
20260502222005 8 356 8.0 19.3 0.00 0.00 0.00 48 1014.8
20260502221505 8 345 8.0 17.7 0.00 0.00 0.00 48 1014.9
20260502221005 8 337 8.0 20.9 0.00 0.00 0.00 48 1014.9
20260502220505 8 355 8.0 17.7 0.00 0.00 0.00 49 1014.8
20260502220005 8 356 8.0 20.9 0.00 0.00 0.00 47 1014.9
20260502215505 8 341 9.7 19.3 0.00 0.00 0.00 47 1014.8
20260502215006 8 348 9.7 24.1 0.00 0.00 0.00 48 1014.7
20260502214505 8 352 8.0 24.1 0.00 0.00 0.00 49 1014.8
20260502214026 8 346 9.7 24.1 0.00 0.00 0.00 48 1014.8
20260502213506 8 338 8.0 19.3 0.00 0.00 0.00 48 1014.8
20260502213005 8 337 6.4 20.9 0.00 0.00 0.00 48 1014.8
20260502212506 8 350 6.4 19.3 0.00 0.00 0.00 48 1014.8
20260502212027 8 5 6.4 19.3 0.00 0.00 0.00 47 1014.8
20260502211505 8 356 8.0 20.9 0.00 0.00 0.00 47 1014.9
20260502211006 8 344 9.7 27.4 0.00 0.00 0.00 46 1014.8
20260502210505 8 339 8.0 19.3 0.00 0.00 0.00 47 1014.7
20260502210005 8 334 8.0 17.7 0.00 0.00 0.00 48 1014.8
20260502205505 8 340 9.7 24.1 0.00 0.00 0.00 50 1014.7
20260502205005 8 359 8.0 19.3 0.00 0.00 0.00 51 1014.9
20260502204505 8 349 8.0 19.3 0.00 0.00 0.00 49 1014.9
20260502204005 8 345 8.0 24.1 0.00 0.00 0.00 50 1015.0
20260502203526 8 338 9.7 24.1 0.00 0.00 0.00 49 1015.0
20260502203005 8 334 9.7 24.1 0.00 0.00 0.00 48 1014.9
20260502202505 8 347 9.7 24.1 0.00 0.00 0.00 49 1015.0
20260502202026 8 6 8.0 19.3 0.00 0.00 0.00 50 1015.1
20260502201505 8 1 6.4 17.7 0.00 0.00 0.00 51 1015.0
20260502201005 8 337 8.0 17.7 0.00 0.00 0.00 52 1015.1
20260502200505 8 347 9.7 17.7 0.00 0.00 0.00 50 1015.1
20260502200005 8 3 9.7 27.4 0.00 0.00 0.00 49 1015.2
20260502195505 8 5 9.7 19.3 0.00 0.00 0.00 49 1015.2
20260502195027 8 355 9.7 32.2 0.00 0.00 0.00 49 1015.2
20260502194505 8 341 8.0 17.7 0.00 0.00 0.00 49 1015.2